Cloud_Cover
5 0 0 0 2 2 4 0 0 96 100 99 100 72 100 100 100 43 92 53 5 24 2 4 0 0 0 0 0 0 0 0 0 0 0 0 0 0 0 0 0 5 0 1 0 2 10 0 0
5 4 0 0 14 24 46 1 2 0 100 100 100 65 66 100 100 97 100 31 12 58 24 6 22 0 0 0 0 0 0 0 0 0 0 0 0 0 0 0 0 0 0 0 19 7 14 3 0
5 5 5 1 4 17 96 1 5 16 5 100 100 100 12 13 100 100 100 100 58 43 35 24 0 0 0 0 0 28 49 63 96 95 99 72 77 15 1 0 0 0 0 0 0 9 0 0 0
24 5 5 5 0 1 26 7 100 100 100 97 100 100 64 25 100 100 100 100 100 30 96 40 70 90 99 100 100 100 100 100 92 31 59 0 0 1 2 0 0 1 0 0 6 33 3 0 0
74 5 10 6 5 0 0 0 86 100 99 100 100 100 96 16 56 37 99 100 97 78 35 70 100 100 100 100 91 44 63 93 33 0 1 100 34 0 0 0 0 0 0 0 0 5 8 4 7
72 13 12 93 77 5 0 0 5 42 100 100 100 88 100 100 99 67 100 100 100 100 100 100 100 100 100 75 0 16 6 9 3 0 0 0 0 0 0 0 0 2 5 0 0 5 42 5 0
49 39 62 22 97 5 10 0 21 6 0 29 100 100 32 100 100 96 100 100 100 100 100 100 100 100 82 8 1 0 0 0 0 1 0 0 0 0 0 0 0 0 0 0 0 4 5 5 2
24 29 46 50 16 53 28 0 0 94 45 96 100 92 9 58 100 100 100 100 100 100 100 100 100 100 100 94 5 0 0 0 0 5 2 0 0 0 0 0 2 84 30 5 5 5 20 6 6
5 71 17 5 52 40 98 5 3 81 30 98 100 81 84 99 100 100 100 100 100 99 98 90 100 100 100 86 5 4 2 5 5 4 0 0 0 0 0 0 0 2 94 100 14 5 26 14 7
99 5 5 5 8 45 51 78 5 8 16 90 5 5 5 100 100 100 100 100 100 100 96 99 100 100 100 82 5 5 5 5 5 5 3 0 0 2 3 2 0 0 4 68 23 0 5 24 15
56 54 2 5 5 5 38 84 40 5 11 3 8 12 41 95 99 100 100 93 100 100 100 100 100 100 100 99 99 11 61 20 13 5 5 5 2 5 5 5 0 0 1 100 100 92 44 71 13
29 31 1 5 5 5 52 97 100 42 5 7 78 100 100 100 100 94 100 100 100 100 100 100 100 100 100 45 10 18 68 100 48 5 5 5 4 5 5 1 0 0 0 13 98 96 93 12 5
98 69 30 5 5 5 8 19 100 100 64 12 20 10 64 100 100 100 100 100 97 88 100 100 100 100 98 30 99 41 19 58 5 5 5 5 5 4 0 0 0 0 0 0 1 16 3 1 5
29 100 100 98 49 1 4 6 87 15 66 65 54 50 43 99 100 98 100 91 100 100 100 100 100 88 89 6 20 66 70 7 5 4 5 4 0 0 0 0 0 0 0 0 0 1 3 0 1
0 9 100 100 68 81 5 54 24 36 23 39 100 73 5 29 100 98 87 66 75 92 96 100 100 100 91 73 94 97 48 5 5 5 0 0 0 0 0 0 0 0 2 0 0 0 0 5 0
4 2 9 94 100 100 100 100 100 55 74 55 90 67 54 12 26 43 100 100 100 96 94 98 99 69 42 58 85 100 15 50 98 87 26 5 0 0 0 1 0 5 2 0 2 5 8 5 8
99 1 4 56 71 38 33 71 95 12 100 10 69 54 10 30 5 12 90 100 100 100 100 94 99 100 83 70 89 100 69 49 100 100 81 9 5 5 5 5 5 5 35 84 7 32 2 5 4
100 100 100 98 82 1 6 2 68 40 45 74 19 5 11 5 5 5 5 22 100 100 100 100 100 100 100 100 70 73 61 88 90 100 100 100 5 5 36 19 8 5 5 10 5 5 5 5 5
82 58 100 100 100 100 98 5 90 100 88 100 75 22 7 5 5 5 5 8 7 97 100 100 100 100 100 100 100 100 100 100 100 100 100 100 100 68 92 90 56 35 99 91 5 5 5 8 6
100 74 81 96 99 56 100 100 100 98 100 100 100 100 100 27 6 7 13 71 11 4 57 80 99 100 100 100 100 100 100 100 100 100 100 100 100 100 100 100 100 84 94 98 87 51 20 5 43
100 100 100 100 100 100 100 71 100 100 100 100 100 100 95 98 100 100 100 73 41 28 31 77 57 54 26 31 57 86 100 100 100 100 99 100 100 100 100 100 100 100 100 100 100 59 7 6 12
100 100 100 100 100 100 100 13 100 100 95 53 22 100 100 100 100 100 100 100 100 100 97 98 98 100 74 15 9 96 92 36 64 51 77 27 29 71 94 96 100 100 100 100 93 49 28 5 5
100 100 100 100 100 100 100 100 100 100 100 100 68 9 100 100 96 84 100 100 100 100 96 100 100 100 100 100 100 100 100 75 100 91 67 5 32 80 41 19 8 80 100 98 70 12 7 91 52
100 100 100 100 100 60 64 100 100 100 100 100 99 98 100 100 100 100 100 100 83 50 100 100 100 100 100 100 100 100 100 100 100 100 77 9 34 72 9 5 5 5 5 14 5 39 89 15 96
100 100 100 100 100 98 95 100 100 100 100 100 74 3 100 100 100 100 100 100 100 100 100 100 100 100 100 100 100 100 100 100 100 100 99 59 68 60 70 59 80 25 100 54 57 89 89 28 30
100 100 100 84 61 48 55 55 100 100 100 100 100 99 44 100 100 100 100 100 100 100 100 100 100 100 100 100 100 100 100 100 100 100 100 99 100 100 100 100 100 100 87 100 100 99 99 89 89
100 100 100 100 100 100 76 15 20 78 100 79 100 82 100 100 100 100 100 100 100 100 100 100 100 100 100 100 100 100 100 100 100 100 100 100 100 100 100 100 100 100 100 100 100 100 100 100 100
100 100 100 100 100 100 100 100 100 100 100 100 2 4 11 72 95 98 100 100 100 100 100 100 100 100 100 100 100 100 100 100 100 100 100 100 100 100 100 100 100 100 100 100 100 100 100 100 100
100 100 100 99 100 100 100 84 100 100 100 100 100 93 86 19 4 62 53 57 100 100 100 100 100 100 100 100 100 100 100 100 100 100 100 100 100 100 100 100 100 100 100 100 100 100 100 100 100
100 100 99 100 100 100 100 93 100 100 100 100 100 100 100 73 56 24 6 54 21 100 100 100 100 100 100 100 100 100 100 100 100 100 100 100 100 100 100 100 100 100 100 100 100 100 100 100 100